[[{"header":{"parameterUnit":"m.s-1","parameterCategory":1,"la1":30.2991,"la2":30.254,"lo1":-89.0895,"lo2":-89.0444,"dy":0.0017,"dx":0.0017,"nx":28,"ny":28,"refTime":"2025-03-28T09:00:00:Z","depth":0,"parameterNumber":2,"parameterNumberName":"U-component_of_WINDS"},"data":[0,0,0,0,0,0,0,0,0,0,0,0,0,0,0,0,0,0,0,0,0,0,0,0,0,0,0,0,0,0,0,0,0,0,0,0,0,0,0,0,0,0,0,0,0,0,0,0,0,0,0,0,0,0,0,0,0,0,-6.045,-6.0452,0,-6.0613,-6.0615,-6.0617,-6.0555,-6.0551,-6.0548,-6.0544,-6.0711,-6.0719,-6.0727,0,0,0,0,0,0,0,0,0,0,0,0,0,-6.0085,-6.0092,-6.045,-6.0452,-6.0454,-6.0613,-6.0615,-6.0618,-6.0556,-6.0551,-6.0547,-6.0542,-6.0708,-6.0718,-6.0727,0,0,0,0,0,0,0,0,0,0,0,0,0,-6.0246,-6.0095,-6.045,-6.0443,-6.0444,-6.0613,-6.0615,-6.0618,-6.0557,-6.0551,-6.0545,-6.054,-6.0705,-6.0717,-6.0729,-6.0915,0,0,-6.0765,-6.077,0,0,0,0,0,0,0,0,-6.0237,-6.0259,-6.0442,-6.0443,-6.0445,-6.0558,-6.0548,-6.0718,-6.0558,-6.0514,-6.0544,-6.0537,-6.0665,-6.068,-6.0723,-6.0923,-6.093,-6.0766,-6.0773,-6.0779,-6.0782,0,0,0,0,0,0,0,-6.0226,-6.0252,-6.0515,-6.0444,-6.0446,-6.0431,-6.0448,-6.058,-6.0619,-6.0517,-6.0513,-6.0533,-6.0665,-6.0711,-6.0726,-6.0932,-6.0766,-6.0776,-6.0784,-6.0788,-6.1292,-6.1298,0,0,0,0,0,0,-6.0214,-6.0243,-6.051,-6.052,-6.0325,-6.0442,-6.0461,-6.0527,-6.0617,-6.0625,-6.0538,-6.053,-6.0694,-6.0712,-6.0732,-6.0954,-6.0778,-6.079,-6.0796,-6.1286,-6.1293,-6.13,0,0,0,0,0,0,-6.0206,-6.0238,-6.0503,-6.038,-6.0413,-6.0455,-6.053,-6.0534,-6.058,-6.0633,-6.0639,-6.0578,-6.069,-6.0715,-6.0869,-6.0959,-6.0795,-6.0806,-6.1278,-6.1288,-6.1297,-6.14,0,0,0,0,0,0,-6.0196,-6.0236,-6.0307,-6.0382,-6.042,-6.0638,-6.0535,-6.0541,-6.0601,-6.0592,-6.0673,-6.0681,-6.0687,-6.0852,-6.0881,-6.0972,-6.0815,-6.1271,-6.1283,-6.1294,-6.1389,-6.1412,-6.1432,0,0,0,0,0,-6.0183,-6.033,-6.0311,-6.0343,-6.0509,-6.0643,-6.0665,-6.067,-6.0608,-6.068,-6.0714,-6.0678,-6.0945,-6.0868,-6.0901,-6.0996,-6.1265,-6.1279,-6.1293,-6.1379,-6.1407,-6.1431,0,0,0,0,0,0,-6.0264,-6.034,-6.0319,-6.0495,-6.0563,-6.0633,-6.0723,-6.0699,-6.0786,-6.0774,-6.0777,-6.0796,-6.0955,-6.0992,-6.0905,-6.1181,-6.1096,-6.1117,-6.115,-6.1177,-6.1198,-6.1185,-6.0825,0,0,0,0,0,-6.0302,-6.0404,-6.0465,-6.0614,-6.065,-6.0681,-6.0739,-6.0737,-6.0808,-6.0837,-6.0882,-6.0952,-6.1052,-6.1117,-6.1212,-6.1395,-6.1411,-6.1477,-6.1498,-6.1516,-6.1533,-6.1631,-6.166,-6.1346,-6.1346,-6.1346,0,0,-6.0381,-6.0436,-6.05,-6.0632,-6.0684,-6.079,-6.0705,-6.0821,-6.0899,-6.0854,-6.1002,-6.1038,-6.1117,-6.1286,-6.1363,-6.1322,-6.1624,-6.1534,-6.1547,-6.1555,-6.1648,-6.1678,-6.1705,-6.1356,-6.1354,-6.1352,0,0,-6.0579,-6.0632,-6.0761,-6.0816,-6.0897,-6.0916,-6.0948,-6.1022,-6.1043,-6.1192,-6.116,-6.1254,-6.1426,-6.1483,-6.1534,-6.1756,-6.1726,-6.1787,-6.1897,-6.1993,-6.2017,-6.2039,-6.2116,-6.2144,-6.1805,-6.1805,-6.1805,0,-6.0668,-6.0826,-6.083,-6.0948,-6.1006,-6.0972,-6.1101,-6.1155,-6.1263,-6.1304,-6.1257,-6.1471,-6.1522,-6.1703,-6.1757,-6.1801,-6.1836,-6.1776,-6.2014,-6.2036,-6.2056,-6.2129,-6.2158,-6.1812,-6.1811,-6.181,-6.181,0,-6.0929,-6.1039,-6.1134,-6.1238,-6.1308,-6.1432,-6.1454,-6.1525,-6.1518,-6.1542,-6.1694,-6.1754,-6.186,-6.1903,-6.1898,-6.2084,-6.2056,-6.2012,-6.1925,-6.2093,-6.2161,-6.2189,-6.1821,-6.1819,-6.1817,-6.1815,0,0,-6.1179,-6.1286,-6.132,-6.1367,-6.1454,-6.154,-6.1662,-6.1765,-6.1824,-6.1901,-6.2003,-6.215,-6.2109,-6.2168,-6.2169,-6.2253,-6.2422,-6.2198,-6.22,-6.2235,-6.2629,-6.2659,-6.2692,-6.2404,-6.241,-6.2414,-6.2621,0,-6.1382,-6.1596,-6.1604,-6.1799,-6.19,-6.1869,-6.1976,-6.2041,-6.2069,-6.2159,-6.2189,-6.2292,-6.2232,-6.2267,-6.235,-6.2384,-6.2501,-6.237,-6.2497,-6.2502,-6.2475,-6.2728,-6.276,-6.2953,-6.2648,-6.2653,-6.2656,0,-6.1646,-6.173,-6.1935,-6.2008,-6.2051,-6.2146,-6.2241,-6.2328,-6.2402,-6.2416,-6.2482,-6.2471,-6.2596,-6.2509,-6.268,-6.2591,-6.2644,-6.2669,-6.2677,-6.2686,-6.2586,-6.2741,-6.3015,-6.3042,-6.2699,-6.2696,-6.2693,0,-6.1804,-6.197,-6.2113,-6.2155,-6.2244,-6.2311,-6.2352,-6.242,-6.2482,-6.2566,-6.2605,-6.2703,-6.2756,-6.2832,-6.2847,-6.2782,-6.3018,-6.2932,-6.3032,-6.3031,-6.308,-6.3076,-6.3362,-6.312,-6.312,-6.3119,-6.3119,0,-6.2027,-6.2153,-6.2185,-6.2273,-6.2413,-6.2422,-6.2561,-6.2596,-6.2658,-6.2752,-6.2733,-6.2822,-6.2838,-6.2931,-6.2945,-6.3083,-6.3108,-6.3122,-6.3123,-6.3122,-6.312,-6.3154,-6.314,-6.3127,-6.3125,-6.3124,-6.3122,0,-6.2226,-6.2253,-6.2406,-6.2479,-6.25,-6.26,-6.2662,-6.2746,-6.2772,-6.2892,-6.2921,-6.2961,-6.3069,-6.3093,-6.3222,-6.3231,-6.3395,-6.3385,-6.3369,-6.3367,-6.3464,-6.3453,-6.378,-6.3822,-6.3556,-6.3558,-6.356,0,-6.2365,-6.2461,-6.2544,-6.2605,-6.2649,-6.2749,-6.2811,-6.2825,-6.2891,-6.2983,-6.3056,-6.3162,-6.3247,-6.3421,-6.3462,-6.356,-6.355,-6.3658,-6.3565,-6.356,-6.3548,-6.3541,-6.355,-6.3675,-6.3678,-6.368,-6.3682,0,-6.2607,-6.2616,-6.2707,-6.2803,-6.2879,-6.2955,-6.3028,-6.308,-6.3103,-6.3178,-6.3288,-6.3355,-6.3486,-6.3591,-6.369,-6.3731,-6.371,-6.3712,-6.3739,-6.3737,-6.3722,-6.3728,-6.3414,-6.3703,-6.3701,-6.3699,-6.3698,-6.3697,-6.2778,-6.2861,-6.2933,-6.3035,-6.3091,-6.316,-6.3242,-6.3279,-6.3371,-6.3478,-6.3481,-6.3601,-6.3673,-6.3803,-6.3851,-6.3945,-6.3911,-6.3952,-6.3961,-6.397,-6.3978,-6.3711,-6.3963,-6.3963,-6.3962,-6.3962,-6.3961,0,-6.3017,-6.3062,-6.3156,-6.3258,-6.3338,-6.3314,-6.3393,-6.3461,-6.3567,-6.3636,-6.372,-6.3847,-6.3949,-6.3999,-6.41,-6.4165,-6.4158,-6.4191,-6.4184,-6.4194,-6.4003,-6.3968,-6.4195,-6.4195,-6.4195,-6.4194,-6.4194,-6.4194,-6.315,-6.3289,-6.3307,-6.3474,-6.3518,-6.3635,-6.3682,-6.3745,-6.38,-6.3942,-6.4027,-6.4059,-6.412,-6.4225,-6.4318,-6.433,-6.4367,-6.4404,-6.4411,-6.4231,-6.4207,-6.4185,-6.4151,-6.4412,-6.4413,-6.4593,-6.4594,-6.4596]},{"header":{"parameterUnit":"m.s-1","parameterCategory":1,"la1":30.2991,"la2":30.254,"lo1":-89.0895,"lo2":-89.0444,"dy":0.0017,"dx":0.0017,"nx":28,"ny":28,"refTime":"2025-03-28T09:00:00:Z","depth":0,"parameterNumber":3,"parameterNumberName":"V-component_of_WINDS"},"data":[0,0,0,0,0,0,0,0,0,0,0,0,0,0,0,0,0,0,0,0,0,0,0,0,0,0,0,0,0,0,0,0,0,0,0,0,0,0,0,0,0,0,0,0,0,0,0,0,0,0,0,0,0,0,0,0,0,0,1.85,1.8501,0,1.8573,1.8574,1.8575,1.8569,1.8568,1.8567,1.8566,1.864,1.8643,1.8646,0,0,0,0,0,0,0,0,0,0,0,0,0,1.8358,1.836,1.85,1.8501,1.8502,1.8573,1.8574,1.8575,1.8569,1.8568,1.8567,1.8566,1.8639,1.8643,1.8646,0,0,0,0,0,0,0,0,0,0,0,0,0,1.8424,1.8361,1.85,1.8508,1.8509,1.8573,1.8574,1.8575,1.857,1.8568,1.8566,1.8565,1.8638,1.8642,1.8647,1.8707,0,0,1.8661,1.8663,0,0,0,0,0,0,0,0,1.842,1.8429,1.8506,1.8508,1.8509,1.856,1.8551,1.862,1.857,1.8547,1.8566,1.8564,1.8615,1.8621,1.8638,1.8711,1.8714,1.8661,1.8664,1.8666,1.8667,0,0,0,0,0,0,0,1.8416,1.8426,1.8529,1.8507,1.8509,1.8508,1.8516,1.8564,1.8589,1.8549,1.8548,1.8557,1.8616,1.8634,1.864,1.8715,1.8661,1.8665,1.8668,1.8669,1.8842,1.8844,0,0,0,0,0,0,1.8409,1.8422,1.8527,1.8531,1.846,1.8512,1.8521,1.8546,1.8589,1.8594,1.8558,1.8557,1.8627,1.8635,1.8643,1.8717,1.8666,1.867,1.8672,1.884,1.8843,1.8845,0,0,0,0,0,0,1.8406,1.8419,1.8524,1.8477,1.849,1.8516,1.8545,1.8548,1.8567,1.8596,1.8601,1.8573,1.8626,1.8636,1.8692,1.872,1.8672,1.8676,1.8838,1.8841,1.8844,1.8866,0,0,0,0,0,0,1.8402,1.8418,1.844,1.8477,1.8493,1.8571,1.8546,1.8551,1.8574,1.8573,1.8611,1.8615,1.8626,1.8685,1.8696,1.8725,1.8679,1.8836,1.8839,1.8843,1.8863,1.8869,1.8875,0,0,0,0,0,1.8397,1.8443,1.8442,1.8454,1.8522,1.8573,1.8582,1.8593,1.8577,1.86,1.8619,1.8614,1.8715,1.8691,1.8703,1.8734,1.8834,1.8838,1.8843,1.886,1.8868,1.8875,0,0,0,0,0,0,1.8408,1.8448,1.8447,1.8506,1.8536,1.8572,1.8602,1.8601,1.8636,1.8632,1.8645,1.8654,1.8709,1.8727,1.8699,1.8796,1.8772,1.8779,1.8782,1.8789,1.8795,1.879,1.8683,0,0,0,0,0,1.8418,1.8456,1.8489,1.8538,1.8553,1.8575,1.8598,1.8604,1.8636,1.8648,1.8671,1.8702,1.8741,1.8766,1.8803,1.8866,1.8875,1.8893,1.8899,1.8904,1.891,1.8945,1.8954,1.8859,1.8859,1.8859,0,0,1.8438,1.8464,1.8487,1.8541,1.8565,1.8605,1.8586,1.8628,1.8658,1.8654,1.8708,1.8727,1.8762,1.8822,1.8849,1.8838,1.8938,1.8909,1.8913,1.8916,1.8951,1.896,1.8968,1.8862,1.8861,1.8861,0,0,1.8494,1.8518,1.8562,1.8587,1.8624,1.8638,1.8649,1.8685,1.8697,1.8752,1.8751,1.8786,1.8853,1.8878,1.89,1.8969,1.8966,1.8981,1.9011,1.9046,1.9054,1.906,1.9085,1.9094,1.8986,1.8986,1.8986,0,1.8514,1.8573,1.8585,1.8628,1.8652,1.8652,1.8698,1.8721,1.8768,1.8785,1.8773,1.8857,1.8881,1.8947,1.8964,1.8981,1.8995,1.8976,1.9051,1.9058,1.9065,1.9089,1.9098,1.8988,1.8988,1.8988,1.8987,0,1.8596,1.8638,1.8669,1.8715,1.8743,1.8787,1.8806,1.8833,1.8838,1.8854,1.891,1.8939,1.8983,1.8999,1.9003,1.9066,1.9058,1.9049,1.9026,1.9075,1.9098,1.9108,1.899,1.899,1.8989,1.8989,0,0,1.866,1.8714,1.8725,1.8747,1.8788,1.8821,1.8866,1.8909,1.8932,1.8965,1.9004,1.9061,1.9053,1.9077,1.9085,1.9115,1.9169,1.9102,1.9103,1.9114,1.9241,1.9249,1.9259,1.9167,1.9169,1.9171,1.9239,0,1.8721,1.88,1.8813,1.8883,1.8922,1.8923,1.8963,1.8993,1.9009,1.9045,1.9064,1.9104,1.909,1.9105,1.9135,1.9156,1.9195,1.9151,1.9204,1.9205,1.9195,1.9271,1.9278,1.9341,1.9247,1.9249,1.925,0,1.8802,1.8838,1.8912,1.895,1.8967,1.9002,1.9043,1.9078,1.9113,1.9123,1.9151,1.9156,1.9203,1.9179,1.9245,1.9215,1.9237,1.9251,1.9253,1.9259,1.923,1.9278,1.9361,1.937,1.9264,1.9263,1.9262,0,1.8842,1.8909,1.8962,1.8981,1.9026,1.9051,1.9071,1.9104,1.913,1.9167,1.9184,1.9225,1.9248,1.928,1.9296,1.9277,1.9361,1.9338,1.9372,1.9371,1.9389,1.9388,1.9477,1.9403,1.9403,1.9403,1.9403,0,1.8909,1.8954,1.8981,1.9014,1.9065,1.908,1.9131,1.915,1.918,1.9217,1.9221,1.9256,1.9274,1.9312,1.9325,1.9378,1.9388,1.9398,1.9401,1.9398,1.9397,1.9413,1.9409,1.9405,1.9405,1.9404,1.9404,0,1.8962,1.8982,1.904,1.9079,1.909,1.9126,1.9159,1.9192,1.9209,1.9256,1.9268,1.9295,1.934,1.9359,1.9414,1.9423,1.9484,1.9483,1.9472,1.9473,1.9506,1.9503,1.9608,1.9623,1.954,1.954,1.9541,0,1.9003,1.9038,1.9081,1.9106,1.9127,1.9168,1.9195,1.9211,1.9239,1.9282,1.931,1.9355,1.9392,1.9464,1.9488,1.9531,1.9532,1.9566,1.9538,1.9534,1.9533,1.9531,1.9535,1.9571,1.9571,1.9572,1.9573,0,1.9074,1.9083,1.9121,1.9164,1.9195,1.923,1.9263,1.9283,1.9305,1.9337,1.9383,1.9412,1.9469,1.9514,1.9558,1.9579,1.958,1.9581,1.9592,1.9589,1.9581,1.9586,1.9486,1.9579,1.9578,1.9578,1.9577,1.9577,1.9123,1.9155,1.919,1.9233,1.9261,1.9292,1.9325,1.9347,1.9386,1.9433,1.9441,1.9491,1.9526,1.9586,1.9609,1.9649,1.964,1.9655,1.9658,1.9662,1.9664,1.9575,1.9657,1.9657,1.9656,1.9656,1.9656,0,1.9195,1.9218,1.9258,1.9305,1.9339,1.9337,1.9375,1.9404,1.9447,1.9481,1.9517,1.9571,1.9616,1.9644,1.9689,1.9715,1.9717,1.9727,1.9725,1.973,1.9669,1.9656,1.9725,1.9725,1.9725,1.9725,1.9725,1.9725,1.9236,1.929,1.9303,1.9372,1.9395,1.9444,1.9465,1.9495,1.9522,1.9582,1.9619,1.9638,1.967,1.9717,1.9758,1.9765,1.9782,1.9792,1.9799,1.9741,1.9734,1.9727,1.9715,1.9796,1.9796,1.9857,1.9858,1.9858]}]]